Regional Weather Roundup
Issued by NWS Charleston, SC

Current Version | Previous Version | Graphics & Text | Print | Product List | Glossary On
Versions: 1 2 3 4 5 6 7 8 9 10 11 12 13 14 15 16 17 18 19 20 21 22 23 24 25 26 27 28 29 30 31 32 33 34 35 36 37 38 39 40 41 42 43 44 45 46 47 48 49 50
000 ASUS42 KCHS 281310 RWRCHS REGIONAL WEATHER ROUNDUP NATIONAL WEATHER SERVICE CHARLESTON SC 800 AM EST WED JAN 28 2015 NOTE: "FAIR" INDICATES FEW OR NO CLOUDS BELOW 12,000 FEET WITH NO SIGNIFICANT WEATHER AND/OR OBSTRUCTIONS TO VISIBILITY. NOT ALL STATIONS ARE QUALITY CONTROLLED BY THE NATIONAL WEATHER SERVICE. USE DATA WITH CAUTION...ESPECIALLY DEWPOINT OBSERVATIONS. SCZ027-030-031-034>040-042>050-281400- ...SOUTHEAST SOUTH CAROLINA... CITY SKY/WX TMP DP RH WIND PRES REMARKS N CHARLESTON CLEAR 32 23 69 N6 30.21R WCI 26 WATERFRONT PRK N/A 36 N/A N/A N13 N/A WCI 27 MOUNT PLEASANT LGT RAIN N/A N/A N/A N6 30.20R PINOPOLIS NOT AVBL MONCKS CORNER FAIR 36 18 48 N8G16 30.21R WCI 29 SUMMERVILLE FAIR 30 28 93 N6 30.22R WCI 24 BEAUFORT MCAS CLEAR 34 26 72 N7 30.22R WCI 28 BEAUFORT ARPT FAIR 34 30 86 NW8 30.22R WCI 27 HILTON HEAD IS CLEAR 37 28 70 N9 30.21R WCI 31 WALTERBORO SUNNY 30 N/A N/A CALM 30.23R ALLENDALE FAIR 30 27 86 CALM 30.23R ...SOUTHERN MIDLANDS AND PEE DEE... CITY SKY/WX TMP DP RH WIND PRES REMARKS GEORGETOWN NOT AVBL KINGSTREE NOT AVBL ORANGEBURG CLEAR 31 20 63 N7 30.22R WCI 24 BARNWELL N/A 30 27 86 CALM 30.23R AIKEN FAIR 30 25 80 CALM 30.25R MANNING FAIR 32 21 64 N8 30.22R WCI 25 COLUMBIA CLEAR 32 21 64 N5 30.24R WCI 27 SUMTER CLEAR 31 16 53 N13 30.21R WCI 21 FLORENCE CLEAR 29 15 56 NW7 30.21R WCI 22 MYRTLE BEACH CLEAR 30 16 55 N13 30.21R WCI 20 N MYRTLE BEACH CLEAR 30 17 58 N7 30.18R WCI 23 $$ GAZ063-065-086>088-099>101-113>116-118-119-134>141-150-281400- ...SOUTHEAST GEORGIA... CITY SKY/WX TMP DP RH WIND PRES REMARKS SAVANNAH ARPT CLEAR 33 26 75 N7 30.23R WCI 27 HUNTER AAF CLEAR 35 28 74 VRB6 30.20R WCI 30 FORT STEWART CLEAR 31 29 89 NW3 30.21R STATESBORO CLEAR 30 30 100 CALM 30.23R SYLVANIA SUNNY 29 29 100 CALM 30.23R CLAXTON FAIR 30 30 100 CALM 30.23R ...CSRA...CENTRAL AND FAR SOUTHEAST GEORGIA... CITY SKY/WX TMP DP RH WIND PRES REMARKS THOMSON CLEAR 25 25 100 CALM 30.29R AUGUSTA-BUSH CLEAR 24 23 96 CALM 30.24R AUGUSTA-DANIEL CLEAR 34 24 67 NW5 30.23R WCI 30 SWAINSBORO FAIR 32 30 93 NW5 30.24R WCI 27 VIDALIA CLEAR 32 32 100 N6 30.23R WCI 26 EASTMAN FAIR 30 30 100 CALM 30.27R HAZLEHURST FAIR 34 33 96 N3 30.23R ALMA CLEAR 33 29 85 NW3 30.22R WAYCROSS CLEAR 37 34 89 N6 30.22R WCI 32 JESUP FAIR 37 34 87 CALM 30.22R BAXLEY FAIR 34 32 93 N5 30.22R WCI 30 BRUNSWICK CLEAR 36 32 87 NW5 30.21R WCI 32 SAINT SIMONS CLEAR 37 29 72 N9 30.20R WCI 30 $$ SCZ027-028-034-036>038-045-046-048>050-GAZ119-141-281400- ...LAKE AND SUPPLEMENTAL COASTAL OBSERVATIONS... STATION/POSITION TIME TEMP WIND PRES WAVE SWELL AIR SEA DIR/SP/G HT/PER HT/PER/DIR (UTC) (F) (DEG/KT/KT) (MB) (FT/S) (FT/S/D) UPR LAKE MARION NOT AVBL WINYAH BAY NOT AVBL LAKE MURRAY 1200 30 350/ 1/ 4 1022.0R ACE BASIN NERRS NOT AVBL FORT PULASKI 1200 36 52 330/ 8/ 10 1022.4R SAPELO ISLAND 1200 37 340/ 8 1022.0R $$ ANZ835-935-AMZ111-154-330-350-352-354-370-450-454-472-281400- ...C-MAN AND BUOY OBSERVATIONS... STATION/POSITION TIME TEMP WIND PRES WAVE SWELL AIR SEA DIR/SP/G HT/PER HT/PER/DIR (UTC) (F) (DEG/KT/KT) (MB) (FT/S) (FT/S/D) BUOY 41004 1250 43 67 350/ 21/ 27 1020.6R 6/ 6 2/11 BUOY 41008 1250 45 54 10/ 17/ 19 1021.9R 3/ 4 2/ 80/11 FOLLY BEACH CMAN 1200 35 340/ 7/ 9 1022.1R CAPERS NEARSHORE 1200 38 10/ 16/ 19 N/A FRIPP NEARSHORE 1200 42 10/ 17/ 19 N/A STATION/POSITION TIME TEMP WIND PRES WAVE SWELL AIR SEA DIR/SP/G HT/PER HT/PER/DIR (UTC) (F) (DEG/KT/KT) (MB) (FT/S) (FT/S/D) 5E ST. MARYS GA 1222 57 N/A 3/ 5 FRYING PAN BUOY 1250 39 64 360/ 19/ 23 1020.7R 5/ 5 2/ 70/13 BUOY 41025 1250 38 69 350/ 23/ 29 1017.8R 10/12 8/ 50/12 CAPE LOOKOUT NC 1200 34 350/ 16/ 20 1018.6R BUOY 41002 1250 57 71 310/ 21/ 27 1015.2R 11/14 7/350/14 BUOY 41010 1220 62 75 320/ 16/ 19 1017.7R ST AUGUSTINE FL 1300 40 320/ 9/ 11 1022.4R $$

USA.gov is the U.S. government's official web portal to all federal, state and local government web resources and services.